Terminal Aerodrome Forecast
Issued by NWS

Home | Current Version | Previous Version | Text Only | Print | Product List | Glossary On
Versions: 1 2 3 4 5 6 7 8 9 10 11 12 13 14 15 16 17
000
FTUS45 KRIW 291137
TAFRKS
TAF
KRKS 291137Z 2912/3012 05015G24KT P6SM OVC030
     FM291500 05014G25KT P6SM SCT025 BKN040
     FM292100 03014G24KT P6SM SCT050 BKN080
     FM300100 05011KT P6SM SCT080
     FM300600 VRB05KT P6SM SCT090=

USA.gov is the U.S. government's official web portal to all federal, state and local government web resources and services.